[[{"header":{"parameterUnit":"m.s-1","parameterCategory":1,"la1":30.2991,"la2":30.254,"lo1":-89.0895,"lo2":-89.0444,"dy":0.0017,"dx":0.0017,"nx":28,"ny":28,"refTime":"2025-01-04T03:00:00:Z","depth":0,"parameterNumber":2,"parameterNumberName":"U-component_of_WINDS"},"data":[0,0,0,0,0,0,0,0,0,0,0,0,0,0,0,0,0,0,0,0,0,0,0,0,0,0,0,0,0,0,0,0,0,0,0,0,0,0,0,0,0,0,0,0,0,0,0,0,0,0,0,0,0,0,0,0,0,0,-6.4791,-6.4792,0,-6.4827,-6.4827,-6.4828,-6.4655,-6.465,-6.4645,-6.464,-6.4677,-6.4682,-6.4688,0,0,0,0,0,0,0,0,0,0,0,0,0,-6.4574,-6.4579,-6.4791,-6.4792,-6.4792,-6.4827,-6.4827,-6.4828,-6.4656,-6.465,-6.4644,-6.4638,-6.4675,-6.4681,-6.4688,0,0,0,0,0,0,0,0,0,0,0,0,0,-6.4645,-6.458,-6.4791,-6.4711,-6.4704,-6.4827,-6.4828,-6.4828,-6.4657,-6.465,-6.4642,-6.4635,-6.4673,-6.4681,-6.4689,-6.4891,0,0,-6.4715,-6.4719,0,0,0,0,0,0,0,0,-6.4641,-6.4653,-6.4722,-6.4716,-6.4709,-6.4729,-6.4764,-6.4849,-6.4659,-6.4675,-6.464,-6.4631,-6.47,-6.4706,-6.4729,-6.4893,-6.4895,-6.4716,-6.4721,-6.4724,-6.4727,0,0,0,0,0,0,0,-6.4636,-6.4651,-6.4805,-6.4723,-6.4715,-6.4672,-6.4674,-6.4779,-6.4729,-6.4673,-6.466,-6.4667,-6.4695,-6.4721,-6.4728,-6.4895,-6.4715,-6.4723,-6.4728,-6.4731,-6.5227,-6.5235,0,0,0,0,0,0,-6.4642,-6.4648,-6.4804,-6.4806,-6.4656,-6.4683,-6.4684,-6.473,-6.4727,-6.472,-6.4673,-6.4659,-6.471,-6.4719,-6.4729,-6.4965,-6.4724,-6.4732,-6.4737,-6.5219,-6.5229,-6.5238,0,0,0,0,0,0,-6.4638,-6.4658,-6.4803,-6.4724,-6.4739,-6.4694,-6.4747,-6.4735,-6.4761,-6.4728,-6.4718,-6.471,-6.4705,-6.4717,-6.4852,-6.4964,-6.4736,-6.4744,-6.521,-6.5222,-6.5233,-6.5441,0,0,0,0,0,0,-6.4633,-6.4657,-6.4734,-6.4727,-6.4744,-6.4926,-6.4754,-6.4741,-6.4776,-6.4757,-6.4759,-6.4752,-6.47,-6.4841,-6.4861,-6.4972,-6.475,-6.5199,-6.5215,-6.5229,-6.5423,-6.5458,-6.5488,0,0,0,0,0,-6.4626,-6.4791,-6.4739,-6.4759,-6.4839,-6.4933,-6.4943,-6.4879,-6.4786,-6.4862,-6.4841,-6.4752,-6.4949,-6.4856,-6.4877,-6.4992,-6.5192,-6.5211,-6.5228,-6.5409,-6.5451,-6.5487,0,0,0,0,0,0,-6.4812,-6.4788,-6.473,-6.4898,-6.4919,-6.4904,-6.4998,-6.4926,-6.4974,-6.4954,-6.4873,-6.4875,-6.5025,-6.5022,-6.4919,-6.5188,-6.5054,-6.5078,-6.5184,-6.5224,-6.5256,-6.5253,-6.4757,0,0,0,0,0,-6.4873,-6.4952,-6.4926,-6.5077,-6.5091,-6.5043,-6.5082,-6.5031,-6.5049,-6.5057,-6.5046,-6.5067,-6.5133,-6.5179,-6.5238,-6.5423,-6.542,-6.5512,-6.5545,-6.5571,-6.5592,-6.5689,-6.573,-6.5297,-6.5297,-6.5297,0,0,-6.4999,-6.4996,-6.505,-6.5115,-6.5125,-6.5208,-6.5052,-6.5146,-6.5207,-6.5071,-6.5198,-6.5191,-6.5209,-6.537,-6.544,-6.5372,-6.5711,-6.5595,-6.5616,-6.5622,-6.5712,-6.5753,-6.579,-6.531,-6.5308,-6.5306,0,0,-6.5271,-6.5277,-6.5403,-6.5416,-6.5434,-6.5401,-6.5432,-6.5428,-6.5418,-6.5544,-6.5444,-6.5515,-6.5632,-6.5648,-6.5672,-6.5952,-6.5872,-6.5974,-6.6142,-6.6238,-6.6272,-6.6302,-6.6401,-6.6438,-6.5995,-6.5996,-6.5996,0,-6.5425,-6.5547,-6.5476,-6.5578,-6.5609,-6.5491,-6.5618,-6.5634,-6.5671,-6.5695,-6.5618,-6.5762,-6.5766,-6.5929,-6.5997,-6.6021,-6.6053,-6.5973,-6.6273,-6.6302,-6.6329,-6.6422,-6.646,-6.6008,-6.6006,-6.6005,-6.6004,0,-6.5735,-6.5821,-6.5921,-6.5959,-6.6002,-6.6116,-6.6063,-6.6114,-6.6061,-6.6036,-6.6166,-6.6167,-6.6224,-6.6259,-6.6208,-6.6416,-6.6373,-6.6287,-6.615,-6.6383,-6.647,-6.6505,-6.6025,-6.6021,-6.6017,-6.6014,0,0,-6.6124,-6.6123,-6.6161,-6.6177,-6.6188,-6.6253,-6.6362,-6.6418,-6.6464,-6.6493,-6.6582,-6.6684,-6.6604,-6.6631,-6.658,-6.6665,-6.6886,-6.6567,-6.6566,-6.6626,-6.7115,-6.7179,-6.7222,-6.6834,-6.684,-6.6845,-6.7113,0,-6.639,-6.6576,-6.6516,-6.6704,-6.6782,-6.6672,-6.6766,-6.6784,-6.6764,-6.6828,-6.6806,-6.6879,-6.6768,-6.6784,-6.6863,-6.6843,-6.6983,-6.6823,-6.6915,-6.6919,-6.6913,-6.7267,-6.7336,-6.7588,-6.7146,-6.7152,-6.7156,0,-6.6725,-6.6768,-6.6964,-6.6962,-6.6992,-6.7079,-6.7126,-6.7188,-6.7206,-6.7185,-6.7217,-6.7149,-6.7255,-6.712,-6.7265,-6.7158,-6.7192,-6.7188,-6.7196,-6.7202,-6.7051,-6.7281,-6.7667,-6.7705,-6.7209,-6.7205,-6.7201,0,-6.6988,-6.7095,-6.7226,-6.7243,-6.7245,-6.7308,-6.7311,-6.7321,-6.7359,-6.74,-6.7424,-6.7478,-6.7507,-6.755,-6.7498,-6.7404,-6.7651,-6.7511,-6.7637,-6.7639,-6.7693,-6.769,-6.8089,-6.7718,-6.7717,-6.7716,-6.7716,0,-6.729,-6.7415,-6.7344,-6.7425,-6.7561,-6.7491,-6.7628,-6.7618,-6.7629,-6.7705,-6.7613,-6.7687,-6.7615,-6.7682,-6.7642,-6.7769,-6.7783,-6.7769,-6.7757,-6.7777,-6.7779,-6.7797,-6.7778,-6.7726,-6.7724,-6.7722,-6.7721,0,-6.7607,-6.7565,-6.77,-6.7691,-6.7692,-6.7792,-6.7784,-6.7858,-6.7832,-6.793,-6.7949,-6.791,-6.7984,-6.7937,-6.8013,-6.7986,-6.8151,-6.8115,-6.8145,-6.8135,-6.8263,-6.8251,-6.8687,-6.874,-6.8336,-6.834,-6.8343,0,-6.7802,-6.7895,-6.7896,-6.7941,-6.795,-6.8024,-6.8062,-6.7998,-6.8042,-6.8069,-6.814,-6.8207,-6.8257,-6.8381,-6.8359,-6.8416,-6.838,-6.8529,-6.8388,-6.8405,-6.8381,-6.8376,-6.8385,-6.8557,-6.8562,-6.8566,-6.8569,0,-6.8153,-6.8128,-6.8186,-6.8239,-6.8287,-6.8326,-6.8356,-6.8398,-6.8334,-6.8388,-6.8463,-6.8502,-6.8579,-6.8647,-6.8695,-6.8698,-6.8624,-6.8614,-6.8645,-6.8666,-6.8679,-6.8673,-6.8221,-6.8604,-6.86,-6.8598,-6.8596,-6.8594,-6.8413,-6.8491,-6.8504,-6.8572,-6.8589,-6.862,-6.8689,-6.8672,-6.8734,-6.8792,-6.8751,-6.884,-6.8855,-6.8913,-6.8926,-6.8994,-6.8934,-6.898,-6.8992,-6.9004,-6.9021,-6.867,-6.9003,-6.9002,-6.9001,-6.9,-6.8999,0,-6.8758,-6.8761,-6.8826,-6.8871,-6.8926,-6.8852,-6.8882,-6.8932,-6.9012,-6.9033,-6.9084,-6.9171,-6.9236,-6.9219,-6.9278,-6.9336,-6.9303,-6.9354,-6.9348,-6.935,-6.9073,-6.9039,-6.9379,-6.9379,-6.9379,-6.9379,-6.9379,-6.9379,-6.8944,-6.9071,-6.9048,-6.9182,-6.9183,-6.9271,-6.9294,-6.9322,-6.9338,-6.944,-6.9493,-6.9482,-6.9488,-6.9547,-6.9603,-6.9596,-6.9622,-6.9685,-6.9666,-6.9407,-6.9369,-6.9334,-6.9301,-6.9691,-6.9692,-6.9937,-6.9939,-6.9941]},{"header":{"parameterUnit":"m.s-1","parameterCategory":1,"la1":30.2991,"la2":30.254,"lo1":-89.0895,"lo2":-89.0444,"dy":0.0017,"dx":0.0017,"nx":28,"ny":28,"refTime":"2025-01-04T03:00:00:Z","depth":0,"parameterNumber":3,"parameterNumberName":"V-component_of_WINDS"},"data":[0,0,0,0,0,0,0,0,0,0,0,0,0,0,0,0,0,0,0,0,0,0,0,0,0,0,0,0,0,0,0,0,0,0,0,0,0,0,0,0,0,0,0,0,0,0,0,0,0,0,0,0,0,0,0,0,0,0,-0.6141,-0.6141,0,-0.6142,-0.6142,-0.6142,-0.6155,-0.6155,-0.6156,-0.6156,-0.6156,-0.6155,-0.6155,0,0,0,0,0,0,0,0,0,0,0,0,0,-0.6148,-0.6148,-0.6141,-0.6141,-0.6141,-0.6142,-0.6142,-0.6142,-0.6155,-0.6155,-0.6156,-0.6156,-0.6156,-0.6155,-0.6155,0,0,0,0,0,0,0,0,0,0,0,0,0,-0.6147,-0.6148,-0.6141,-0.6148,-0.6148,-0.6142,-0.6142,-0.6142,-0.6155,-0.6155,-0.6156,-0.6156,-0.6156,-0.6155,-0.6155,-0.6142,0,0,-0.6153,-0.6153,0,0,0,0,0,0,0,0,-0.6147,-0.6146,-0.6147,-0.6147,-0.6148,-0.6149,-0.6144,-0.6142,-0.6155,-0.6152,-0.6156,-0.6156,-0.6153,-0.6153,-0.6152,-0.6142,-0.6142,-0.6153,-0.6153,-0.6153,-0.6153,0,0,0,0,0,0,0,-0.6147,-0.6146,-0.6141,-0.6147,-0.6147,-0.615,-0.615,-0.6144,-0.615,-0.6152,-0.6153,-0.6153,-0.6153,-0.6152,-0.6152,-0.6142,-0.6153,-0.6153,-0.6153,-0.6152,-0.6118,-0.6117,0,0,0,0,0,0,-0.6146,-0.6146,-0.6141,-0.6141,-0.6149,-0.6149,-0.615,-0.6148,-0.615,-0.6151,-0.6153,-0.6154,-0.6153,-0.6152,-0.6152,-0.6135,-0.6153,-0.6152,-0.6152,-0.6119,-0.6118,-0.6117,0,0,0,0,0,0,-0.6146,-0.6146,-0.6141,-0.6144,-0.6144,-0.6148,-0.6147,-0.6148,-0.6146,-0.615,-0.6151,-0.6151,-0.6153,-0.6152,-0.6143,-0.6135,-0.6152,-0.6152,-0.6119,-0.6118,-0.6118,-0.6101,0,0,0,0,0,0,-0.6147,-0.6146,-0.6141,-0.6144,-0.6143,-0.6134,-0.6146,-0.6147,-0.6146,-0.6147,-0.6148,-0.6149,-0.6153,-0.6144,-0.6143,-0.6134,-0.6151,-0.612,-0.6119,-0.6118,-0.6103,-0.61,-0.6098,0,0,0,0,0,-0.6147,-0.6137,-0.6141,-0.6141,-0.6138,-0.6133,-0.6133,-0.6138,-0.6145,-0.614,-0.6142,-0.6149,-0.6136,-0.6143,-0.6142,-0.6133,-0.6121,-0.6119,-0.6118,-0.6104,-0.61,-0.6098,0,0,0,0,0,0,-0.6134,-0.6138,-0.6142,-0.6133,-0.6133,-0.6135,-0.613,-0.6135,-0.6133,-0.6134,-0.614,-0.6141,-0.613,-0.6131,-0.6139,-0.6119,-0.6129,-0.6128,-0.6119,-0.6116,-0.6113,-0.6113,-0.6151,0,0,0,0,0,-0.613,-0.6126,-0.613,-0.6121,-0.6121,-0.6125,-0.6123,-0.6127,-0.6127,-0.6127,-0.6128,-0.6127,-0.6122,-0.6119,-0.6116,-0.6103,-0.6102,-0.6096,-0.6093,-0.6091,-0.609,-0.6081,-0.6077,-0.6113,-0.6113,-0.6113,0,0,-0.6122,-0.6124,-0.6121,-0.6119,-0.6119,-0.6113,-0.6125,-0.6119,-0.6115,-0.6126,-0.6117,-0.6118,-0.6117,-0.6105,-0.61,-0.6106,-0.6079,-0.6089,-0.6088,-0.6087,-0.6079,-0.6075,-0.6072,-0.6112,-0.6112,-0.6112,0,0,-0.6105,-0.6106,-0.6098,-0.6098,-0.6098,-0.61,-0.6098,-0.6099,-0.61,-0.6092,-0.6099,-0.6093,-0.6086,-0.6084,-0.6082,-0.6062,-0.6067,-0.606,-0.6047,-0.6038,-0.6035,-0.6033,-0.6024,-0.602,-0.6058,-0.6058,-0.6058,0,-0.6095,-0.6088,-0.6094,-0.6087,-0.6085,-0.6094,-0.6085,-0.6084,-0.6082,-0.608,-0.6086,-0.6075,-0.6076,-0.6063,-0.6057,-0.6056,-0.6053,-0.606,-0.6035,-0.6033,-0.6031,-0.6022,-0.6019,-0.6057,-0.6058,-0.6058,-0.6058,0,-0.6074,-0.6069,-0.6063,-0.606,-0.6058,-0.605,-0.6054,-0.605,-0.6054,-0.6055,-0.6045,-0.6045,-0.604,-0.6038,-0.6042,-0.6025,-0.6028,-0.6034,-0.6045,-0.6026,-0.6018,-0.6015,-0.6056,-0.6056,-0.6057,-0.6057,0,0,-0.605,-0.605,-0.6047,-0.6045,-0.6044,-0.604,-0.6032,-0.6027,-0.6023,-0.6021,-0.6013,-0.6005,-0.6011,-0.6009,-0.6012,-0.6005,-0.5985,-0.6012,-0.6012,-0.6006,-0.5964,-0.5959,-0.5955,-0.5989,-0.5989,-0.5988,-0.5964,0,-0.6032,-0.6019,-0.6023,-0.6009,-0.6003,-0.601,-0.6002,-0.6,-0.6001,-0.5995,-0.5996,-0.5989,-0.5998,-0.5996,-0.5989,-0.5989,-0.5977,-0.5991,-0.5981,-0.598,-0.598,-0.5951,-0.5945,-0.5922,-0.5961,-0.596,-0.596,0,-0.601,-0.6006,-0.5991,-0.5989,-0.5987,-0.598,-0.5975,-0.597,-0.5967,-0.5967,-0.5964,-0.5968,-0.5958,-0.5969,-0.5955,-0.5964,-0.596,-0.5959,-0.5958,-0.5957,-0.5969,-0.5947,-0.5916,-0.5912,-0.5955,-0.5956,-0.5956,0,-0.5992,-0.5983,-0.5973,-0.5971,-0.5969,-0.5963,-0.5962,-0.5959,-0.5955,-0.595,-0.5948,-0.5942,-0.5938,-0.5933,-0.5935,-0.5943,-0.5919,-0.5931,-0.5918,-0.5918,-0.5913,-0.5913,-0.5879,-0.5912,-0.5912,-0.5912,-0.5912,0,-0.5971,-0.5961,-0.5964,-0.5958,-0.5946,-0.595,-0.5938,-0.5937,-0.5935,-0.5927,-0.5933,-0.5925,-0.5929,-0.5921,-0.5923,-0.5909,-0.5908,-0.5908,-0.5908,-0.5906,-0.5906,-0.5903,-0.5904,-0.5911,-0.5911,-0.5912,-0.5912,0,-0.5949,-0.5951,-0.5939,-0.5937,-0.5937,-0.5928,-0.5926,-0.5919,-0.5919,-0.5909,-0.5907,-0.5907,-0.5898,-0.59,-0.589,-0.5891,-0.5874,-0.5877,-0.5875,-0.5875,-0.5862,-0.5863,-0.5824,-0.5818,-0.5856,-0.5856,-0.5856,0,-0.5936,-0.5928,-0.5925,-0.592,-0.5918,-0.591,-0.5906,-0.5909,-0.5903,-0.5898,-0.5891,-0.5882,-0.5876,-0.5861,-0.586,-0.5852,-0.5854,-0.584,-0.5852,-0.585,-0.5851,-0.5851,-0.585,-0.5838,-0.5837,-0.5837,-0.5837,0,-0.591,-0.5911,-0.5905,-0.5897,-0.5892,-0.5886,-0.5882,-0.5877,-0.5879,-0.5873,-0.5863,-0.5858,-0.5847,-0.5838,-0.583,-0.5828,-0.5832,-0.5833,-0.5829,-0.5827,-0.5826,-0.5825,-0.5867,-0.5834,-0.5834,-0.5834,-0.5834,-0.5835,-0.5891,-0.5884,-0.588,-0.5872,-0.5868,-0.5863,-0.5855,-0.5854,-0.5846,-0.5837,-0.5839,-0.5828,-0.5823,-0.5812,-0.5809,-0.5799,-0.5804,-0.58,-0.5798,-0.5797,-0.5794,-0.5828,-0.5798,-0.5798,-0.5798,-0.5798,-0.5798,0,-0.5865,-0.5862,-0.5855,-0.5847,-0.584,-0.5844,-0.5839,-0.5832,-0.5822,-0.5817,-0.581,-0.5798,-0.5788,-0.5785,-0.5776,-0.5768,-0.577,-0.5766,-0.5766,-0.5765,-0.5791,-0.5795,-0.5764,-0.5764,-0.5764,-0.5764,-0.5764,-0.5764,-0.5851,-0.5838,-0.5837,-0.5822,-0.5819,-0.5808,-0.5804,-0.5798,-0.5794,-0.578,-0.5772,-0.577,-0.5765,-0.5755,-0.5745,-0.5745,-0.574,-0.5735,-0.5735,-0.576,-0.5763,-0.5766,-0.5769,-0.5734,-0.5734,-0.5708,-0.5708,-0.5708]}]]